San Juan, PR

8:08 AM AST on May 27, 2018 (GMT -0400)
Luis Munoz Marin International

Weather History for TJSJ - March, 2012

Change the Weather History Date:

Friday, March 2, 2012

  Actual Average Record
Temperature  
Mean Temperature 78 °F 78 °F  
Max Temperature 85 °F 84 °F 91 °F (1984)
Min Temperature 71 °F 72 °F 62 °F (1957)
Degree Days  
Heating Degree Days 0 0  
Month to date heating degree days 0 0  
Since 1 July heating degree days 0 0  
Cooling Degree Days 13 13  
Month to date cooling degree days 25 26  
Year to date cooling degree days 789 777  
Growing Degree Days 28 (Base 50)    
Moisture  
Dew Point 69 °F    
Average Humidity 74    
Maximum Humidity 90    
Minimum Humidity 58    
Precipitation  
Precipitation 0.01 in 0.06 in 1.18 in (1969)
Month to date precipitation 0.20 0.13  
Year to date precipitation 5.90 6.28  
Snow  
Snow 0.00 in 0.00 in - ()
Month to date snowfall 0.0 0.0  
Since 1 July snowfall 0.0 0.0  
Snow Depth 0.00 in    
Sea Level Pressure  
Sea Level Pressure 30.07 in    
Wind  
Wind Speed 9 mph (East)    
Max Wind Speed 24 mph    
Max Gust Speed 30 mph    
Visibility 10 miles    
Events Rain    
T = Trace of Precipitation, MM = Missing Value Source: NWS Daily Summary

Daily Weather History Graph

Daily Weather History Graph

Search for Another Location

Airport or City:

Astronomy

Mar. 02, 2012 Rise Set
Actual Time 6:41 AM AST 6:30 PM AST
Civil Twilight 6:19 AM AST 6:52 PM AST
Nautical Twilight 5:54 AM AST 7:17 PM AST
Astronomical Twilight 5:29 AM AST 7:43 PM AST
Moon 1:15 PM AST (3/2) 1:52 AM AST (3/2)
Length of Visible Light 12h 32m
Length of Day
11h 48m
Waxing Gibbous, 65% of the Moon is Illuminated
Mar 2
Waxing Gibbous
Mar 8
Full
Mar 14
Last Quarter
Mar 22
New
Mar 30
First Quarter

Hourly Weather History & Observations

Time (AST) Temp. Heat Index Dew Point Humidity Pressure Visibility Wind Dir Wind Speed Gust Speed Precip Events Conditions
12:56 AM 73.9 °F - 68.0 °F 82% 30.07 in 10.0 mi Calm Calm - N/A   Partly Cloudy
1:56 AM 73.0 °F - 68.0 °F 84% 30.06 in 10.0 mi Calm Calm - 0.00 in   Partly Cloudy
2:56 AM 72.0 °F - 68.0 °F 87% 30.05 in 10.0 mi Calm Calm - 0.00 in Rain Light Rain
3:56 AM 72.0 °F - 68.0 °F 87% 30.03 in 10.0 mi Calm Calm - 0.00 in   Partly Cloudy
4:56 AM 71.1 °F - 68.0 °F 90% 30.03 in 10.0 mi Calm Calm - N/A   Scattered Clouds
5:56 AM 72.0 °F - 68.0 °F 87% 30.04 in 10.0 mi Calm Calm - 0.01 in   Scattered Clouds
6:56 AM 72.0 °F - 68.0 °F 87% 30.07 in 10.0 mi Calm Calm - N/A   Partly Cloudy
7:56 AM 75.9 °F - 69.1 °F 79% 30.09 in 10.0 mi ESE 3.5 mph - N/A   Partly Cloudy
8:56 AM 79.0 °F - 69.1 °F 72% 30.09 in 10.0 mi East 8.1 mph - N/A   Partly Cloudy
9:56 AM 82.0 °F 84.1 °F 66.0 °F 58% 30.09 in 10.0 mi ESE 12.7 mph 19.6 mph N/A   Partly Cloudy
10:56 AM 82.9 °F 85.0 °F 66.0 °F 56% 30.10 in 10.0 mi East 11.5 mph 19.6 mph N/A   Partly Cloudy
11:56 AM 84.0 °F 87.8 °F 69.1 °F 61% 30.09 in 10.0 mi ENE 17.3 mph - N/A   Scattered Clouds
12:56 PM 84.0 °F 87.8 °F 69.1 °F 61% 30.07 in 10.0 mi ENE 19.6 mph - N/A   Scattered Clouds
1:56 PM 84.0 °F 88.4 °F 70.0 °F 63% 30.06 in 10.0 mi ENE 15.0 mph 25.3 mph N/A   Scattered Clouds
2:56 PM 82.9 °F 87.0 °F 70.0 °F 65% 30.04 in 10.0 mi ENE 21.9 mph 28.8 mph N/A   Scattered Clouds
3:56 PM 82.0 °F 85.9 °F 70.0 °F 67% 30.04 in 10.0 mi East 18.4 mph 23.0 mph N/A   Scattered Clouds
4:56 PM 81.0 °F 84.1 °F 69.1 °F 67% 30.04 in 10.0 mi East 17.3 mph - N/A   Scattered Clouds
5:56 PM 80.1 °F 83.2 °F 70.0 °F 71% 30.05 in 10.0 mi ENE 15.0 mph 21.9 mph N/A   Scattered Clouds
6:56 PM 78.1 °F - 71.1 °F 79% 30.06 in 10.0 mi East 15.0 mph - 0.00 in   Scattered Clouds
7:56 PM 78.1 °F - 71.1 °F 79% 30.07 in 10.0 mi East 9.2 mph - N/A   Scattered Clouds
8:56 PM 78.1 °F - 70.0 °F 76% 30.09 in 10.0 mi East 11.5 mph - N/A   Scattered Clouds
9:56 PM 77.0 °F - 70.0 °F 79% 30.09 in 10.0 mi East 11.5 mph - N/A   Scattered Clouds
10:56 PM 75.9 °F - 70.0 °F 82% 30.09 in 10.0 mi ESE 4.6 mph - 0.00 in   Mostly Cloudy
11:56 PM 77.0 °F - 69.1 °F 76% 30.09 in 10.0 mi East 11.5 mph - N/A   Mostly Cloudy